Saint Bonnet de Bellac- Haute Vienne - France
Donnes mto: samedi, 04/08/2012
Date Horaire Temp. E. Hum. E. P.atmo. Pluie Vent Direction Direction Ensoleilleme Solaire P. de rose Temp au vent Rafales
04/08/2012 00:00 17,1 C 72 % 1017,5 hPa 0,0 mm 0,0 km/h (0 Bft) S-SO 202 0 min 0 W/m 12,0 C 17,1 C 0,0 km/h (0 Bft)
04/08/2012 00:10 17,1 C 73 % 1017,4 hPa 0,0 mm 0,0 km/h (0 Bft) S-SO 202 0 min 0 W/m 12,2 C 17,1 C 0,0 km/h (0 Bft)
04/08/2012 00:20 17,0 C 73 % 1017,4 hPa 0,0 mm 0,0 km/h (0 Bft) S-SO 202 0 min 0 W/m 12,1 C 17,0 C 0,0 km/h (0 Bft)
04/08/2012 00:30 16,9 C 73 % 1017,3 hPa 0,0 mm 0,0 km/h (0 Bft) S-SO 202 0 min 0 W/m 12,0 C 16,9 C 0,0 km/h (0 Bft)
04/08/2012 00:40 16,9 C 73 % 1017,3 hPa 0,0 mm 0,0 km/h (0 Bft) S-SO 202 0 min 0 W/m 12,0 C 16,9 C 0,0 km/h (0 Bft)
04/08/2012 00:50 16,8 C 74 % 1017,3 hPa 0,0 mm 0,0 km/h (0 Bft) S-SO 202 0 min 0 W/m 12,1 C 16,8 C 0,0 km/h (0 Bft)
04/08/2012 01:00 16,6 C 74 % 1017,2 hPa 0,0 mm 0,0 km/h (0 Bft) S-SO 202 0 min 0 W/m 11,9 C 16,6 C 0,0 km/h (0 Bft)
04/08/2012 01:10 16,5 C 74 % 1017,2 hPa 0,0 mm 0,0 km/h (0 Bft) S-SO 202 0 min 0 W/m 11,8 C 16,5 C 0,0 km/h (0 Bft)
04/08/2012 01:20 16,4 C 74 % 1017,1 hPa 0,0 mm 0,0 km/h (0 Bft) S 180 0 min 0 W/m 11,8 C 16,4 C 0,0 km/h (0 Bft)
04/08/2012 01:30 16,3 C 75 % 1017,2 hPa 0,0 mm 0,0 km/h (0 Bft) S 180 0 min 0 W/m 11,9 C 16,3 C 0,0 km/h (0 Bft)
04/08/2012 01:40 16,1 C 76 % 1017,0 hPa 0,0 mm 0,0 km/h (0 Bft) S 180 0 min 0 W/m 11,9 C 16,1 C 0,0 km/h (0 Bft)
04/08/2012 01:50 16,0 C 77 % 1017,0 hPa 0,0 mm 0,0 km/h (0 Bft) S-SE 157 0 min 0 W/m 12,0 C 16,0 C 0,0 km/h (0 Bft)
04/08/2012 02:00 15,9 C 77 % 1017,0 hPa 0,0 mm 0,0 km/h (0 Bft) S 180 0 min 0 W/m 11,9 C 15,9 C 0,0 km/h (0 Bft)
04/08/2012 02:10 15,8 C 77 % 1017,0 hPa 0,0 mm 0,0 km/h (0 Bft) S-SO 202 0 min 0 W/m 11,8 C 15,8 C 0,0 km/h (0 Bft)
04/08/2012 02:20 15,8 C 77 % 1016,9 hPa 0,0 mm 0,0 km/h (0 Bft) S-SO 202 0 min 0 W/m 11,8 C 15,8 C 0,0 km/h (0 Bft)
04/08/2012 02:30 15,8 C 78 % 1016,8 hPa 0,0 mm 0,0 km/h (0 Bft) S-SO 202 0 min 0 W/m 12,0 C 15,8 C 0,0 km/h (0 Bft)
04/08/2012 02:40 15,7 C 78 % 1016,8 hPa 0,0 mm 0,0 km/h (0 Bft) S-SO 202 0 min 0 W/m 11,9 C 15,7 C 0,0 km/h (0 Bft)
04/08/2012 02:50 15,6 C 79 % 1016,8 hPa 0,0 mm 0,0 km/h (0 Bft) S-SO 202 0 min 0 W/m 12,0 C 15,6 C 0,0 km/h (0 Bft)
04/08/2012 03:02 15,6 C 79 % 1016,8 hPa 0,0 mm 0,0 km/h (0 Bft) S-SO 202 0 min 0 W/m 12,0 C 15,6 C 0,0 km/h (0 Bft)
04/08/2012 03:10 15,6 C 79 % 1016,8 hPa 0,0 mm 0,0 km/h (0 Bft) S-SO 202 0 min 0 W/m 12,0 C 15,6 C 0,0 km/h (0 Bft)
04/08/2012 03:20 15,6 C 79 % 1016,7 hPa 0,0 mm 0,0 km/h (0 Bft) S-SO 202 0 min 0 W/m 12,0 C 15,6 C 0,0 km/h (0 Bft)
04/08/2012 03:30 15,5 C 79 % 1016,7 hPa 0,0 mm 0,0 km/h (0 Bft) S-SO 202 0 min 0 W/m 11,9 C 15,5 C 0,0 km/h (0 Bft)
04/08/2012 03:40 15,5 C 80 % 1016,5 hPa 0,0 mm 2,2 km/h (1 Bft) SE 135 0 min 0 W/m 12,1 C 15,5 C 3,6 km/h (1 Bft)
04/08/2012 03:50 15,6 C 80 % 1016,5 hPa 0,0 mm 0,0 km/h (0 Bft) SE 135 0 min 0 W/m 12,2 C 15,6 C 0,0 km/h (0 Bft)
04/08/2012 04:00 15,6 C 80 % 1016,4 hPa 0,0 mm 0,0 km/h (0 Bft) SE 135 0 min 0 W/m 12,2 C 15,6 C 0,0 km/h (0 Bft)
04/08/2012 04:10 15,6 C 80 % 1016,5 hPa 0,0 mm 0,0 km/h (0 Bft) SE 135 0 min 0 W/m 12,2 C 15,6 C 0,0 km/h (0 Bft)
04/08/2012 04:20 15,6 C 80 % 1016,3 hPa 0,0 mm 0,0 km/h (0 Bft) S-SE 157 0 min 0 W/m 12,2 C 15,6 C 0,0 km/h (0 Bft)
04/08/2012 04:30 15,5 C 80 % 1016,3 hPa 0,0 mm 0,0 km/h (0 Bft) SE 135 0 min 0 W/m 12,1 C 15,5 C 0,0 km/h (0 Bft)
04/08/2012 04:40 15,5 C 80 % 1016,0 hPa 0,0 mm 0,0 km/h (0 Bft) SE 135 0 min 0 W/m 12,1 C 15,5 C 0,0 km/h (0 Bft)
04/08/2012 04:50 15,6 C 80 % 1016,1 hPa 0,0 mm 0,0 km/h (0 Bft) S-SO 202 0 min 0 W/m 12,2 C 15,6 C 0,0 km/h (0 Bft)
04/08/2012 05:00 15,5 C 80 % 1016,2 hPa 0,0 mm 0,0 km/h (0 Bft) SO 225 0 min 0 W/m 12,1 C 15,5 C 0,0 km/h (0 Bft)
04/08/2012 05:10 15,4 C 80 % 1016,0 hPa 0,0 mm 0,0 km/h (0 Bft) SO 225 0 min 0 W/m 12,0 C 15,4 C 0,0 km/h (0 Bft)
04/08/2012 05:20 15,3 C 81 % 1016,1 hPa 0,0 mm 0,0 km/h (0 Bft) O-NO 292 0 min 0 W/m 12,1 C 15,3 C 0,0 km/h (0 Bft)
04/08/2012 05:30 15,2 C 81 % 1016,1 hPa 0,0 mm 0,0 km/h (0 Bft) O-NO 292 0 min 0 W/m 12,0 C 15,2 C 0,0 km/h (0 Bft)
04/08/2012 05:40 15,1 C 81 % 1016,2 hPa 0,0 mm 0,0 km/h (0 Bft) NO 315 0 min 0 W/m 11,9 C 15,1 C 0,0 km/h (0 Bft)
04/08/2012 05:50 15,1 C 82 % 1016,0 hPa 0,0 mm 0,0 km/h (0 Bft) NO 315 0 min 0 W/m 12,0 C 15,1 C 0,0 km/h (0 Bft)
04/08/2012 06:00 14,9 C 82 % 1016,1 hPa 0,0 mm 0,0 km/h (0 Bft) NO 315 0 min 0 W/m 11,9 C 14,9 C 0,0 km/h (0 Bft)
04/08/2012 06:10 14,9 C 82 % 1016,2 hPa 0,0 mm 0,0 km/h (0 Bft) NO 315 0 min 0 W/m 11,9 C 14,9 C 0,0 km/h (0 Bft)
04/08/2012 06:20 14,9 C 82 % 1016,1 hPa 0,0 mm 0,0 km/h (0 Bft) NO 315 0 min 0 W/m 11,9 C 14,9 C 0,0 km/h (0 Bft)
04/08/2012 06:30 14,8 C 83 % 1016,1 hPa 0,0 mm 0,0 km/h (0 Bft) NO 315 0 min 0 W/m 11,9 C 14,8 C 0,0 km/h (0 Bft)
04/08/2012 06:40 14,8 C 83 % 1016,1 hPa 0,0 mm 0,0 km/h (0 Bft) O-NO 292 0 min 0 W/m 11,9 C 14,8 C 0,0 km/h (0 Bft)
04/08/2012 06:50 14,6 C 84 % 1016,0 hPa 0,0 mm 0,0 km/h (0 Bft) O-NO 292 0 min 0 W/m 11,9 C 14,6 C 0,0 km/h (0 Bft)
04/08/2012 07:00 14,6 C 84 % 1016,0 hPa 0,0 mm 0,0 km/h (0 Bft) O-NO 292 0 min 0 W/m 11,9 C 14,6 C 0,0 km/h (0 Bft)
04/08/2012 07:10 14,6 C 84 % 1015,9 hPa 0,0 mm 0,0 km/h (0 Bft) O-NO 292 0 min 0 W/m 11,9 C 14,6 C 0,0 km/h (0 Bft)
04/08/2012 07:20 14,6 C 84 % 1016,1 hPa 0,0 mm 0,0 km/h (0 Bft) O-NO 292 0 min 0 W/m 11,9 C 14,6 C 0,0 km/h (0 Bft)
04/08/2012 07:30 14,6 C 84 % 1015,9 hPa 0,0 mm 0,0 km/h (0 Bft) O-NO 292 0 min 0 W/m 11,9 C 14,6 C 0,0 km/h (0 Bft)
04/08/2012 07:40 14,6 C 84 % 1015,8 hPa 0,0 mm 0,0 km/h (0 Bft) O-NO 292 0 min 0 W/m 11,9 C 14,6 C 0,0 km/h (0 Bft)
04/08/2012 07:50 14,8 C 84 % 1015,8 hPa 0,0 mm 0,0 km/h (0 Bft) O-NO 292 0 min 0 W/m 12,1 C 14,8 C 0,0 km/h (0 Bft)
04/08/2012 08:00 14,8 C 84 % 1015,7 hPa 0,0 mm 0,0 km/h (0 Bft) O-NO 292 0 min 0 W/m 12,1 C 14,8 C 0,0 km/h (0 Bft)
04/08/2012 08:10 14,9 C 84 % 1015,6 hPa 0,0 mm 0,0 km/h (0 Bft) O-NO 292 0 min 0 W/m 12,2 C 14,9 C 0,0 km/h (0 Bft)
04/08/2012 08:20 15,1 C 84 % 1015,6 hPa 0,0 mm 0,0 km/h (0 Bft) O-NO 292 0 min 0 W/m 12,4 C 15,1 C 0,0 km/h (0 Bft)
04/08/2012 08:30 15,3 C 84 % 1015,6 hPa 0,0 mm 0,0 km/h (0 Bft) O-NO 292 0 min 0 W/m 12,6 C 15,3 C 0,0 km/h (0 Bft)
04/08/2012 08:40 15,5 C 84 % 1015,7 hPa 0,0 mm 0,0 km/h (0 Bft) O-NO 292 0 min 0 W/m 12,8 C 15,5 C 0,0 km/h (0 Bft)
04/08/2012 08:50 15,6 C 84 % 1015,7 hPa 0,0 mm 0,0 km/h (0 Bft) O-NO 292 0 min 0 W/m 12,9 C 15,6 C 0,0 km/h (0 Bft)
04/08/2012 09:00 15,9 C 84 % 1015,8 hPa 0,0 mm 0,0 km/h (0 Bft) E 90 0 min 0 W/m 13,2 C 15,9 C 0,0 km/h (0 Bft)
04/08/2012 09:10 16,3 C 84 % 1015,6 hPa 0,0 mm 0,4 km/h (0 Bft) SE 135 0 min 0 W/m 13,6 C 16,3 C 0,4 km/h (0 Bft)
04/08/2012 09:20 16,5 C 85 % 1015,8 hPa 0,0 mm 0,0 km/h (0 Bft) E-SE 112 0 min 0 W/m 14,0 C 16,5 C 0,0 km/h (0 Bft)
04/08/2012 09:30 16,8 C 85 % 1015,6 hPa 0,0 mm 0,0 km/h (0 Bft) E-SE 112 0 min 0 W/m 14,3 C 16,8 C 0,0 km/h (0 Bft)
04/08/2012 09:40 17,2 C 84 % 1015,7 hPa 0,0 mm 0,0 km/h (0 Bft) E-SE 112 0 min 0 W/m 14,5 C 17,2 C 0,0 km/h (0 Bft)
04/08/2012 09:50 17,9 C 83 % 1015,7 hPa 0,0 mm 0,0 km/h (0 Bft) E-SE 112 0 min 0 W/m 15,0 C 17,9 C 0,0 km/h (0 Bft)
04/08/2012 10:00 18,8 C 81 % 1015,5 hPa 0,0 mm 0,0 km/h (0 Bft) O-SO 247 0 min 0 W/m 15,5 C 18,8 C 0,0 km/h (0 Bft)
04/08/2012 10:10 19,8 C 74 % 1015,5 hPa 0,0 mm 0,0 km/h (0 Bft) SO 225 0 min 0 W/m 15,0 C 19,8 C 0,0 km/h (0 Bft)
04/08/2012 10:20 20,8 C 72 % 1015,3 hPa 0,0 mm 1,1 km/h (1 Bft) O-SO 247 0 min 0 W/m 15,6 C 20,8 C 1,1 km/h (1 Bft)
04/08/2012 10:30 21,6 C 67 % 1015,2 hPa 0,0 mm 2,2 km/h (1 Bft) NE 45 0 min 0 W/m 15,2 C 21,6 C 4,3 km/h (1 Bft)
04/08/2012 10:40 22,3 C 65 % 1015,2 hPa 0,0 mm 0,4 km/h (0 Bft) E-NE 67 0 min 0 W/m 15,4 C 22,3 C 3,2 km/h (1 Bft)
04/08/2012 10:50 22,8 C 61 % 1015,4 hPa 0,0 mm 0,0 km/h (0 Bft) E-NE 67 0 min 0 W/m 14,9 C 22,8 C 0,0 km/h (0 Bft)
04/08/2012 11:00 22,9 C 58 % 1015,4 hPa 0,0 mm 2,9 km/h (1 Bft) S 180 0 min 0 W/m 14,2 C 22,9 C 4,3 km/h (1 Bft)
04/08/2012 11:10 22,9 C 56 % 1015,5 hPa 0,0 mm 1,1 km/h (1 Bft) S 180 0 min 0 W/m 13,6 C 22,9 C 4,0 km/h (1 Bft)
04/08/2012 11:20 23,3 C 58 % 1015,4 hPa 0,0 mm 3,2 km/h (1 Bft) S-SO 202 0 min 0 W/m 14,6 C 23,3 C 7,6 km/h (2 Bft)
04/08/2012 11:30 23,6 C 56 % 1015,4 hPa 0,0 mm 2,5 km/h (1 Bft) SO 225 0 min 0 W/m 14,3 C 23,6 C 4,3 km/h (1 Bft)
04/08/2012 11:40 24,1 C 55 % 1015,4 hPa 0,0 mm 0,4 km/h (0 Bft) O-NO 292 0 min 0 W/m 14,5 C 24,1 C 3,6 km/h (1 Bft)
04/08/2012 11:50 24,5 C 52 % 1015,2 hPa 0,0 mm 2,2 km/h (1 Bft) SO 225 0 min 0 W/m 14,0 C 24,5 C 6,8 km/h (2 Bft)
04/08/2012 12:00 24,5 C 52 % 1015,2 hPa 0,0 mm 0,4 km/h (0 Bft) S-SE 157 0 min 0 W/m 14,0 C 24,5 C 0,4 km/h (0 Bft)
04/08/2012 12:10 25,1 C 53 % 1015,1 hPa 0,0 mm 0,0 km/h (0 Bft) S-SE 157 0 min 0 W/m 14,8 C 25,1 C 0,0 km/h (0 Bft)
04/08/2012 12:20 25,1 C 50 % 1015,0 hPa 0,0 mm 0,4 km/h (0 Bft) O 270 0 min 0 W/m 13,9 C 25,1 C 0,4 km/h (0 Bft)
04/08/2012 12:30 25,0 C 48 % 1015,0 hPa 0,0 mm 4,7 km/h (1 Bft) S-SE 157 0 min 0 W/m 13,2 C 25,0 C 6,5 km/h (2 Bft)
04/08/2012 12:40 24,9 C 48 % 1014,9 hPa 0,0 mm 2,2 km/h (1 Bft) O-SO 247 0 min 0 W/m 13,1 C 24,9 C 6,1 km/h (2 Bft)
04/08/2012 12:50 24,9 C 48 % 1014,9 hPa 0,0 mm 3,6 km/h (1 Bft) S-SO 202 0 min 0 W/m 13,1 C 24,9 C 7,6 km/h (2 Bft)
04/08/2012 13:00 24,8 C 49 % 1014,9 hPa 0,0 mm 0,7 km/h (0 Bft) O 270 0 min 0 W/m 13,3 C 24,8 C 4,0 km/h (1 Bft)
04/08/2012 13:10 25,2 C 50 % 1014,8 hPa 0,0 mm 2,5 km/h (1 Bft) S 180 0 min 0 W/m 14,0 C 25,2 C 6,5 km/h (2 Bft)
04/08/2012 13:20 25,6 C 49 % 1014,6 hPa 0,0 mm 1,1 km/h (1 Bft) SO 225 0 min 0 W/m 14,1 C 25,6 C 4,3 km/h (1 Bft)
04/08/2012 13:30 25,9 C 46 % 1014,6 hPa 0,0 mm 1,8 km/h (1 Bft) S-SO 202 0 min 0 W/m 13,4 C 25,9 C 3,2 km/h (1 Bft)
04/08/2012 13:40 25,8 C 47 % 1014,7 hPa 0,0 mm 1,8 km/h (1 Bft) O-NO 292 0 min 0 W/m 13,6 C 25,8 C 7,2 km/h (2 Bft)
04/08/2012 13:50 26,3 C 43 % 1014,7 hPa 0,0 mm 6,5 km/h (2 Bft) O-NO 292 0 min 0 W/m 12,7 C 26,3 C 14,0 km/h (3 Bft)
04/08/2012 14:00 26,1 C 44 % 1014,5 hPa 0,0 mm 2,2 km/h (1 Bft) O-NO 292 0 min 0 W/m 12,9 C 26,1 C 2,2 km/h (1 Bft)
04/08/2012 14:10 26,3 C 45 % 1014,5 hPa 0,0 mm 1,1 km/h (1 Bft) O-SO 247 0 min 0 W/m 13,4 C 26,3 C 3,2 km/h (1 Bft)
04/08/2012 14:20 26,4 C 44 % 1014,3 hPa 0,0 mm 1,8 km/h (1 Bft) O-SO 247 0 min 0 W/m 13,1 C 26,4 C 3,2 km/h (1 Bft)
04/08/2012 14:30 25,9 C 45 % 1014,3 hPa 0,0 mm 0,0 km/h (0 Bft) S-SO 202 0 min 0 W/m 13,0 C 25,9 C 2,9 km/h (1 Bft)
04/08/2012 14:40 25,8 C 43 % 1014,1 hPa 0,0 mm 0,7 km/h (0 Bft) N-NO 337 0 min 0 W/m 12,3 C 25,8 C 4,7 km/h (1 Bft)
04/08/2012 14:50 26,2 C 45 % 1014,2 hPa 0,0 mm 0,4 km/h (0 Bft) SO 225 0 min 0 W/m 13,3 C 26,2 C 3,6 km/h (1 Bft)
04/08/2012 15:00 26,3 C 44 % 1014,1 hPa 0,0 mm 2,2 km/h (1 Bft) NO 315 0 min 0 W/m 13,1 C 26,3 C 4,3 km/h (1 Bft)
04/08/2012 15:10 26,1 C 45 % 1014,1 hPa 0,0 mm 0,4 km/h (0 Bft) O 270 0 min 0 W/m 13,2 C 26,1 C 3,6 km/h (1 Bft)
04/08/2012 15:20 26,1 C 47 % 1014,0 hPa 0,0 mm 2,2 km/h (1 Bft) S 180 0 min 0 W/m 13,9 C 26,1 C 4,0 km/h (1 Bft)
04/08/2012 15:30 25,9 C 48 % 1013,9 hPa 0,0 mm 2,9 km/h (1 Bft) SO 225 0 min 0 W/m 14,0 C 25,9 C 7,6 km/h (2 Bft)
04/08/2012 15:40 25,8 C 47 % 1013,8 hPa 0,0 mm 1,8 km/h (1 Bft) S-SO 202 0 min 0 W/m 13,6 C 25,8 C 4,0 km/h (1 Bft)
04/08/2012 15:50 26,2 C 48 % 1013,6 hPa 0,0 mm 0,0 km/h (0 Bft) O-NO 292 0 min 0 W/m 14,3 C 26,2 C 0,0 km/h (0 Bft)
04/08/2012 16:00 26,5 C 46 % 1013,7 hPa 0,0 mm 4,3 km/h (1 Bft) O-SO 247 0 min 0 W/m 13,9 C 26,5 C 7,6 km/h (2 Bft)
04/08/2012 16:10 26,3 C 46 % 1013,5 hPa 0,0 mm 0,0 km/h (0 Bft) O-NO 292 0 min 0 W/m 13,7 C 26,3 C 0,0 km/h (0 Bft)
04/08/2012 16:20 26,2 C 47 % 1013,5 hPa 0,0 mm 0,0 km/h (0 Bft) O 270 0 min 0 W/m 14,0 C 26,2 C 0,0 km/h (0 Bft)
04/08/2012 16:30 25,9 C 45 % 1013,4 hPa 0,0 mm 1,8 km/h (1 Bft) O 270 0 min 0 W/m 13,0 C 25,9 C 6,1 km/h (2 Bft)
04/08/2012 16:40 25,8 C 45 % 1013,4 hPa 0,0 mm 3,2 km/h (1 Bft) O-SO 247 0 min 0 W/m 13,0 C 25,8 C 4,0 km/h (1 Bft)
04/08/2012 16:50 25,6 C 45 % 1013,3 hPa 0,0 mm 1,8 km/h (1 Bft) SO 225 0 min 0 W/m 12,8 C 25,6 C 7,2 km/h (2 Bft)
04/08/2012 17:00 25,2 C 45 % 1013,3 hPa 0,0 mm 1,1 km/h (1 Bft) S-SO 202 0 min 0 W/m 12,4 C 25,2 C 1,1 km/h (1 Bft)
04/08/2012 17:10 24,9 C 44 % 1013,3 hPa 0,0 mm 1,8 km/h (1 Bft) SO 225 0 min 0 W/m 11,8 C 24,9 C 4,0 km/h (1 Bft)
04/08/2012 17:20 24,6 C 46 % 1013,3 hPa 0,0 mm 0,7 km/h (0 Bft) O-NO 292 0 min 0 W/m 12,2 C 24,6 C 4,0 km/h (1 Bft)
04/08/2012 17:30 24,6 C 47 % 1013,2 hPa 0,0 mm 7,2 km/h (2 Bft) SO 225 0 min 0 W/m 12,5 C 24,6 C 9,4 km/h (2 Bft)
04/08/2012 17:40 24,6 C 48 % 1013,0 hPa 0,0 mm 1,1 km/h (1 Bft) O 270 0 min 0 W/m 12,8 C 24,6 C 4,0 km/h (1 Bft)
04/08/2012 17:50 24,6 C 48 % 1013,0 hPa 0,0 mm 0,0 km/h (0 Bft) O-NO 292 0 min 0 W/m 12,8 C 24,6 C 0,0 km/h (0 Bft)
04/08/2012 18:00 24,7 C 49 % 1013,0 hPa 0,0 mm 0,7 km/h (0 Bft) O-SO 247 0 min 0 W/m 13,3 C 24,7 C 0,7 km/h (0 Bft)
04/08/2012 18:10 24,8 C 48 % 1012,9 hPa 0,0 mm 1,8 km/h (1 Bft) O 270 0 min 0 W/m 13,0 C 24,8 C 1,8 km/h (1 Bft)
04/08/2012 18:20 24,6 C 49 % 1012,8 hPa 0,0 mm 2,2 km/h (1 Bft) O-SO 247 0 min 0 W/m 13,2 C 24,6 C 2,2 km/h (1 Bft)
04/08/2012 18:30 24,2 C 50 % 1012,7 hPa 0,0 mm 1,8 km/h (1 Bft) SO 225 0 min 0 W/m 13,1 C 24,2 C 3,2 km/h (1 Bft)
04/08/2012 18:40 23,9 C 50 % 1012,6 hPa 0,0 mm 4,0 km/h (1 Bft) S-SE 157 0 min 0 W/m 12,8 C 23,9 C 4,3 km/h (1 Bft)
04/08/2012 18:50 23,8 C 52 % 1012,4 hPa 0,0 mm 2,2 km/h (1 Bft) O 270 0 min 0 W/m 13,3 C 23,8 C 4,7 km/h (1 Bft)
04/08/2012 19:00 23,7 C 51 % 1012,6 hPa 0,0 mm 2,9 km/h (1 Bft) O-SO 247 0 min 0 W/m 13,0 C 23,7 C 7,6 km/h (2 Bft)
04/08/2012 19:10 23,5 C 50 % 1012,5 hPa 0,0 mm 1,8 km/h (1 Bft) SO 225 0 min 0 W/m 12,5 C 23,5 C 6,1 km/h (2 Bft)
04/08/2012 19:20 23,3 C 52 % 1012,4 hPa 0,0 mm 0,0 km/h (0 Bft) O 270 0 min 0 W/m 12,9 C 23,3 C 0,0 km/h (0 Bft)
04/08/2012 19:30 23,4 C 52 % 1012,3 hPa 0,0 mm 2,2 km/h (1 Bft) O 270 0 min 0 W/m 13,0 C 23,4 C 6,1 km/h (2 Bft)
04/08/2012 19:40 23,7 C 53 % 1012,3 hPa 0,0 mm 2,2 km/h (1 Bft) O 270 0 min 0 W/m 13,5 C 23,7 C 4,3 km/h (1 Bft)
04/08/2012 19:50 23,9 C 53 % 1012,3 hPa 0,0 mm 4,7 km/h (1 Bft) O-NO 292 0 min 0 W/m 13,7 C 23,9 C 6,8 km/h (2 Bft)
04/08/2012 20:00 24,0 C 53 % 1012,3 hPa 0,0 mm 0,7 km/h (0 Bft) O-SO 247 0 min 0 W/m 13,8 C 24,0 C 0,7 km/h (0 Bft)
04/08/2012 20:10 23,8 C 53 % 1012,2 hPa 0,0 mm 6,5 km/h (2 Bft) O-SO 247 0 min 0 W/m 13,6 C 23,8 C 6,5 km/h (2 Bft)
04/08/2012 20:20 23,3 C 54 % 1012,3 hPa 0,0 mm 1,8 km/h (1 Bft) SO 225 0 min 0 W/m 13,5 C 23,3 C 4,3 km/h (1 Bft)
04/08/2012 20:30 22,9 C 55 % 1012,2 hPa 0,0 mm 0,0 km/h (0 Bft) O-SO 247 0 min 0 W/m 13,4 C 22,9 C 0,0 km/h (0 Bft)
04/08/2012 20:40 22,5 C 56 % 1012,1 hPa 0,0 mm 0,4 km/h (0 Bft) SO 225 0 min 0 W/m 13,3 C 22,5 C 3,2 km/h (1 Bft)
04/08/2012 20:50 22,1 C 58 % 1012,2 hPa 0,0 mm 0,4 km/h (0 Bft) SO 225 0 min 0 W/m 13,4 C 22,1 C 3,2 km/h (1 Bft)
04/08/2012 21:00 21,7 C 58 % 1012,2 hPa 0,0 mm 2,5 km/h (1 Bft) O-SO 247 0 min 0 W/m 13,1 C 21,7 C 6,5 km/h (2 Bft)
04/08/2012 21:10 21,2 C 59 % 1012,1 hPa 0,0 mm 0,0 km/h (0 Bft) O-SO 247 0 min 0 W/m 12,9 C 21,2 C 0,0 km/h (0 Bft)
04/08/2012 21:20 20,8 C 60 % 1012,0 hPa 0,0 mm 0,0 km/h (0 Bft) SO 225 0 min 0 W/m 12,7 C 20,8 C 0,0 km/h (0 Bft)
04/08/2012 21:30 20,4 C 61 % 1012,1 hPa 0,0 mm 0,0 km/h (0 Bft) SO 225 0 min 0 W/m 12,6 C 20,4 C 0,0 km/h (0 Bft)
04/08/2012 21:40 20,0 C 62 % 1012,1 hPa 0,0 mm 0,0 km/h (0 Bft) SO 225 0 min 0 W/m 12,5 C 20,0 C 0,0 km/h (0 Bft)
04/08/2012 21:50 19,6 C 63 % 1012,3 hPa 0,0 mm 0,0 km/h (0 Bft) S-SO 202 0 min 0 W/m 12,4 C 19,6 C 0,0 km/h (0 Bft)
04/08/2012 22:00 19,3 C 65 % 1012,3 hPa 0,0 mm 0,0 km/h (0 Bft) S 180 0 min 0 W/m 12,6 C 19,3 C 0,0 km/h (0 Bft)
04/08/2012 22:10 19,1 C 65 % 1012,5 hPa 0,0 mm 0,0 km/h (0 Bft) S-SO 202 0 min 0 W/m 12,4 C 19,1 C 0,0 km/h (0 Bft)
04/08/2012 22:20 18,9 C 65 % 1012,5 hPa 0,0 mm 0,0 km/h (0 Bft) O 270 0 min 0 W/m 12,2 C 18,9 C 0,0 km/h (0 Bft)
04/08/2012 22:30 18,8 C 66 % 1012,4 hPa 0,0 mm 0,0 km/h (0 Bft) O-SO 247 0 min 0 W/m 12,3 C 18,8 C 0,0 km/h (0 Bft)
_ Min-Heure 07:40 14:40 21:20 - 22:30 - - - - 01:20 07:40 22:30
Minimum _ 14,6 C 43 % 1012,0 hPa - 0,0 km/h (0 Bft) - - - - 11,8 C 14,6 C 0,0 km/h (0 Bft)
_ Max-Heure 16:00 09:30 00:00 22:30 17:30 - - 22:30 22:30 10:20 16:00 13:50
Maximum _ 26,5 C 85 % 1017,5 hPa 0,0 mm 7,2 km/h
SO (2 Bft)
- - 0 min 0 W/m 15,6 C 26,5 C 14,0 km/h
O-NO (3 Bft)
Moyenne _ 20,3 C 65 % 1014,8 hPa #0,0 mm 0,9 km/h (0 Bft) S-SO - #0 min. 0 W/m 12,9 C 20,3 C 2,0 km/h (1 Bft)
Saint Bonnet de Bellac- Haute Vienne - France